Location: Coopersdale
(40.3556°N, 78.9372°W)
Time: 07:31:40
(UTC+00:00)

Tiros 1 despin weight - Pass Details

Date: 24 June 2021
Orbit: 593 x 642 km, 48.2° (Epoch: 04 August)

Event Time Altitude Azimuth Distance (km) Brightness Sun altitude
Exits shadow 08:14:13 19° 189° (S) 1,456 ? -14.2°
Maximum altitude 08:16:39 31° 139° (SE) 1,043 ? -13.9°
Drops below altitude 10° 08:20:34 10° 76° (ENE) 1,926 ? -13.4°
Sets 08:23:01 0° 66° (ENE) 2,828 ? -13.1°
